Tianhui-4 01

operational
NORAD ID: 50572 Int'l Des: 2021-134 Owner: GCDX Country: CN
LEOCIRCULARPOLAR

About Tianhui-4 01

Description loading...

Live Position

Loading 3D Globe...

Upcoming Passes

Altitude History

Altitude vs Time

uPlot chart will show altitude changes over time

Two-Line Element Set

1 50572U 21134A 26061.21481407 .00009707 00000-0 20504-3 0 9999
2 50572 88.9814 337.9067 0011187 119.9974 240.2396 15.44978405233340
Epoch: Mar 2, 2026 • Age: 42 hours

Current Status

Altitude 438.0 km
Velocity 7.65 km/s
Sub-Earth Point -18.43°S, 90.06°E
Launch Date Dec 29, 2021
Age 4.1 years
Type other

Technical Details

Classification Payload
Mass 1000.00 kg
Dry Mass 1000.00 kg
Total Mass 1000.00 kg
Length 1.00 m
Diameter 1.00 m
Span 3.00 m
Shape Box + 2 Pan
Manufacturer DFHZ
Bus Type CAST-2000
Phase Status In Orbit
Owner/State GCDX/CN

Large Constellations

Loading constellations...